sat.trackr.live / text

‹ back to catalog

STARLINK-36352

NORAD 67567 · 2026-016G

PAYLOAD ACTIVE UNKNOWN

§ Identity

Operator
Country
US
Launch date
2026-01-25
Launch site
AFWTR
Launch vehicle
Mass (kg)
RCS (m²)

Purposes: comms

External: N2YO · Heavens-Above · Gunter

§ Orbital elements

Epoch: 2026-05-25T03:18:56.047680Z

Period
93.91 min
Inclination
97.2853°
Eccentricity
0.0000339
Mean motion
15.33447416 rev/d
Perigee alt
465.3 km
Apogee alt
465.8 km
Semi-major
6,843.7 km
B*
5.3932e-4
RAAN
205.5248°
Arg perigee
72.2290°
Mean anomaly
287.8990°
Rev number
1,858

§ Raw data

STARLINK-363521 67567U 26016G   26145.13814870  .00017377  00000+0  53932-3 0  99952 67567  97.2853 205.5248 0000339  72.2290 287.8990 15.33447416 18583

JSON: /api/v1/satellites/67567 · /tle

For live sub-satellite position, see the globe view (requires WebGL).

§ Visibility from observer

Set your observer location to see the next 7 days of passes ≥ 10°. The values pass through the URL so the page stays shareable.

No JS? Fill the form by hand. The geolocation button needs JavaScript.